Temp
86 87 87 89 89 90 91 89 89 88 88 89 89 89 91 91 92 93 93 82 81 80 81 82 82 82 82 82 82 82 82 81 81 81 81 80 80 80 80 80 80 80 79
86 88 88 89 90 90 91 89 87 87 88 89 89 89 88 90 90 89 93 93 81 80 81 82 82 83 83 83 82 82 82 82 81 80 80 80 79 79 80 80 80 79 79
86 85 88 88 90 88 87 88 88 88 89 89 87 89 88 87 89 87 90 91 92 81 80 81 81 82 82 83 83 83 82 81 81 81 80 80 79 79 79 79 79 79 78
85 85 88 89 89 88 89 89 87 87 86 86 86 87 86 87 86 87 89 89 89 91 84 80 79 80 81 82 81 81 81 81 80 80 80 80 79 79 78 79 78 79 78
87 86 89 89 87 89 89 89 88 85 84 82 84 86 86 86 87 88 85 86 86 88 89 81 79 78 80 80 80 80 80 80 80 80 80 80 80 79 78 78 78 78 78
87 87 89 87 88 89 89 87 84 82 77 76 85 84 83 86 87 86 87 89 86 86 87 83 85 86 77 77 78 79 79 79 79 79 79 80 80 79 78 78 78 78 77
87 86 89 88 87 86 84 81 81 76 71 73 81 81 85 85 84 87 88 87 84 85 84 83 84 82 84 78 77 77 78 78 78 78 78 77 78 79 79 78 78 77 77
87 86 86 87 86 86 83 80 75 70 70 69 66 71 72 78 84 84 82 81 79 84 83 82 80 79 81 83 79 77 77 76 77 77 77 77 76 76 77 78 78 77 76
86 86 86 86 86 84 84 75 72 72 66 65 68 66 67 66 71 78 77 77 75 79 82 82 80 80 79 81 80 80 76 75 75 76 76 76 75 75 75 75 76 77 76
86 86 85 86 85 87 81 75 75 72 71 67 69 69 71 71 68 66 72 73 75 77 78 81 82 80 79 81 78 76 74 73 74 75 75 75 74 74 75 75 76 76 75
85 87 86 86 85 87 80 76 74 71 71 69 66 68 70 71 70 68 67 68 71 79 81 81 81 80 80 79 80 79 73 73 73 74 73 73 73 73 73 74 75 76 76
88 85 86 85 86 86 79 78 77 74 72 69 70 68 70 70 73 70 68 69 70 77 80 81 80 80 80 81 79 74 73 73 72 71 71 72 72 72 73 73 73 74 75
87 86 84 84 86 84 80 79 77 74 72 72 75 70 73 75 76 74 68 63 63 76 78 80 80 80 81 79 78 74 73 72 71 69 69 70 70 70 71 71 71 72 73
88 87 85 86 86 86 81 79 79 78 72 72 75 74 76 75 75 75 65 60 70 75 77 75 81 80 79 78 76 73 76 72 70 69 68 68 68 69 69 69 69 69 70
87 85 85 85 85 86 82 80 81 78 75 75 75 76 75 77 77 75 66 67 73 69 72 77 75 79 78 77 75 75 74 71 70 68 68 67 67 67 67 66 66 66 66
83 84 84 84 85 85 81 79 79 78 75 74 77 76 75 77 75 73 68 74 75 73 69 77 77 75 74 73 75 73 73 70 70 69 67 66 66 65 65 65 64 64 65
83 82 83 83 83 82 79 77 77 77 73 75 76 74 75 75 73 75 76 76 75 74 70 74 76 75 69 69 71 72 73 72 75 69 67 66 64 63 63 62 63 63 64
83 82 82 82 82 80 77 73 72 73 72 75 77 74 75 75 74 75 77 73 74 73 70 66 70 71 69 69 69 68 71 74 72 70 67 66 64 63 62 61 61 61 61
83 83 82 81 81 78 71 70 71 70 74 75 77 77 76 75 74 76 76 75 75 73 71 68 67 71 71 71 68 70 70 70 73 70 66 64 63 62 61 60 60 59 58
83 82 82 82 82 76 70 68 71 71 73 76 77 77 77 76 75 73 74 72 71 69 69 69 69 68 69 70 70 69 68 71 68 65 62 63 62 61 61 60 60 60 58
83 83 82 82 82 78 76 72 73 73 75 76 76 77 77 73 67 69 75 70 67 69 69 68 67 68 68 66 65 68 66 68 60 58 58 60 61 62 61 59 60 61 59
82 82 82 82 76 76 65 66 72 76 77 75 68 70 73 69 66 64 64 63 64 64 63 65 66 64 63 64 67 64 63 60 51 59 55 56 62 59 57 60 61 60 59
82 81 78 74 73 75 62 64 68 79 73 68 70 73 75 73 69 71 62 62 63 60 60 62 61 63 61 63 62 59 59 56 53 54 53 52 59 54 58 62 59 59 59
79 76 73 73 73 70 62 62 66 72 73 75 74 73 71 69 68 69 68 68 68 68 66 67 65 65 65 64 62 60 59 61 57 56 55 50 53 53 56 57 58 59 58
75 73 74 73 70 66 60 60 70 75 73 72 71 70 70 68 58 59 67 65 66 66 64 60 59 58 58 59 60 64 61 57 51 55 56 52 53 53 55 54 56 57 54
72 72 71 72 66 70 57 59 70 76 70 69 68 66 61 64 56 56 65 64 63 63 64 66 68 67 66 65 62 63 62 54 51 50 55 51 51 53 52 54 53 54 55
MSLP
1018.35 1018.47 1018.53 1018.43 1018.37 1018.30 1018.24 1018.25 1018.31 1018.35 1018.20 1018.08 1017.99 1017.79 1017.38 1017.13 1016.89 1016.64 1016.51 1016.79 1016.82 1016.79 1016.90 1016.99 1016.92 1016.95 1016.95 1016.99 1016.92 1016.89 1016.89 1016.98 1017.01 1016.95 1017.01 1017.21 1017.20 1017.26 1017.43 1017.61 1017.72 1017.95 1018.24
1018.38 1018.40 1018.43 1018.37 1018.26 1018.35 1018.34 1018.41 1018.47 1018.32 1018.24 1018.13 1017.93 1017.83 1017.53 1017.11 1016.94 1016.85 1016.48 1016.35 1016.74 1016.85 1016.87 1016.72 1016.58 1016.63 1016.53 1016.54 1016.62 1016.63 1016.58 1016.53 1016.71 1016.68 1016.65 1016.73 1016.79 1016.89 1017.03 1017.21 1017.29 1017.58 1017.75
1018.39 1018.59 1018.42 1018.34 1018.34 1018.49 1018.56 1018.40 1018.37 1018.25 1018.11 1018.06 1018.03 1017.72 1017.57 1017.36 1016.95 1016.85 1016.63 1016.52 1016.39 1016.79 1016.75 1016.56 1016.29 1016.19 1016.23 1016.14 1016.07 1016.19 1016.09 1016.11 1016.21 1016.21 1016.14 1016.11 1016.23 1016.31 1016.40 1016.62 1016.70 1017.03 1017.24
1018.40 1018.48 1018.32 1018.25 1018.47 1018.51 1018.39 1018.25 1018.33 1018.24 1018.43 1018.48 1018.26 1018.05 1017.80 1017.47 1017.25 1016.99 1016.70 1016.67 1016.71 1016.60 1016.95 1017.07 1016.86 1016.57 1016.34 1016.21 1016.11 1015.97 1016.01 1015.87 1015.97 1015.92 1015.99 1015.80 1015.75 1015.78 1015.81 1015.85 1016.11 1016.25 1016.63
1018.18 1018.36 1018.19 1018.23 1018.54 1018.44 1018.28 1018.19 1018.37 1018.70 1018.97 1019.05 1018.57 1018.21 1017.92 1017.65 1017.39 1017.28 1017.28 1017.07 1017.01 1016.88 1016.73 1016.93 1017.04 1016.91 1016.81 1016.63 1016.42 1016.20 1015.89 1015.85 1015.63 1015.51 1015.38 1015.35 1015.33 1015.38 1015.38 1015.38 1015.49 1015.57 1015.86
1017.94 1018.13 1018.03 1018.19 1018.35 1018.34 1018.38 1018.49 1018.84 1019.46 1020.46 1020.29 1018.90 1018.31 1018.01 1017.76 1017.45 1017.38 1017.25 1017.07 1017.13 1017.07 1016.98 1017.10 1016.76 1016.55 1016.88 1016.83 1016.60 1016.38 1016.15 1015.88 1015.75 1015.35 1015.17 1014.93 1014.89 1014.82 1014.82 1014.84 1014.93 1015.03 1015.20
1017.72 1017.96 1017.83 1017.86 1018.12 1018.34 1018.73 1019.06 1019.35 1020.06 1020.44 1020.18 1019.15 1018.15 1017.44 1017.43 1017.40 1017.51 1017.35 1017.25 1017.17 1017.06 1017.13 1017.25 1017.14 1017.20 1016.81 1016.88 1016.82 1016.72 1016.49 1016.09 1015.97 1015.57 1015.25 1014.91 1014.49 1014.36 1014.33 1014.36 1014.37 1014.48 1014.63
1017.33 1017.57 1017.64 1017.60 1017.81 1018.17 1018.63 1019.12 1019.69 1020.62 1020.56 1019.92 1019.86 1019.14 1017.88 1017.30 1017.18 1017.40 1017.57 1017.72 1017.62 1017.25 1017.19 1017.20 1017.26 1017.17 1017.00 1016.66 1016.74 1016.76 1016.45 1016.16 1015.82 1015.64 1015.23 1015.09 1014.76 1014.39 1014.06 1013.87 1013.89 1013.93 1014.18
1016.89 1017.21 1017.34 1017.38 1017.58 1017.97 1018.19 1019.48 1019.93 1020.64 1020.55 1019.25 1020.15 1020.39 1019.66 1018.70 1018.15 1017.46 1017.34 1017.65 1017.65 1017.47 1017.16 1017.00 1017.11 1016.99 1016.95 1016.68 1016.46 1016.30 1016.37 1016.24 1015.87 1015.57 1015.32 1015.07 1014.77 1014.53 1014.24 1013.99 1013.72 1013.57 1013.69
1016.28 1016.63 1016.88 1017.01 1017.32 1017.21 1018.15 1019.22 1019.27 1019.77 1019.84 1019.64 1019.95 1019.15 1019.11 1019.16 1018.86 1017.86 1017.43 1017.43 1017.42 1017.29 1017.20 1016.89 1016.68 1016.72 1016.75 1016.53 1016.41 1016.33 1016.23 1016.06 1015.73 1015.40 1015.22 1015.03 1014.73 1014.42 1014.19 1014.00 1013.84 1013.73 1013.55
1015.79 1015.98 1016.27 1016.55 1016.81 1016.93 1017.77 1018.33 1018.67 1018.85 1018.82 1017.25 1017.85 1018.33 1018.46 1018.44 1018.52 1018.66 1017.58 1017.50 1017.46 1017.03 1016.84 1016.61 1016.57 1016.50 1016.43 1016.41 1015.96 1015.79 1016.03 1015.71 1015.49 1015.15 1015.02 1014.82 1014.58 1014.29 1014.01 1013.78 1013.55 1013.38 1013.33
1015.20 1015.49 1015.75 1016.00 1016.23 1016.37 1017.05 1017.53 1017.82 1018.06 1017.57 1018.36 1018.00 1017.96 1017.84 1017.74 1017.50 1017.75 1017.83 1017.57 1017.07 1016.48 1016.60 1016.34 1016.27 1016.21 1016.07 1015.89 1015.93 1015.85 1015.53 1015.31 1015.06 1014.89 1014.67 1014.49 1014.23 1013.92 1013.62 1013.38 1013.17 1013.00 1012.84
1014.48 1014.81 1015.22 1015.51 1015.72 1015.60 1016.39 1016.68 1016.93 1017.02 1016.98 1016.66 1016.90 1017.51 1017.45 1017.12 1017.22 1017.53 1017.98 1018.07 1017.42 1016.23 1016.11 1016.14 1015.94 1015.70 1015.77 1016.00 1015.59 1015.47 1014.97 1014.65 1014.53 1014.34 1014.12 1013.95 1013.67 1013.31 1012.97 1012.72 1012.52 1012.38 1012.25
1013.82 1014.37 1014.73 1014.84 1014.92 1015.07 1015.76 1016.06 1016.23 1016.24 1016.72 1017.07 1017.53 1017.57 1017.10 1017.00 1017.25 1017.46 1017.93 1018.32 1017.27 1016.05 1015.77 1015.71 1015.64 1015.61 1015.79 1015.74 1015.42 1015.06 1014.23 1014.03 1013.95 1013.73 1013.41 1013.05 1012.66 1012.38 1012.11 1011.89 1011.75 1011.64 1011.50
1013.55 1014.09 1014.33 1014.24 1014.73 1014.93 1015.36 1015.75 1016.06 1016.35 1017.00 1017.00 1017.03 1016.99 1017.01 1016.67 1017.00 1017.27 1017.53 1017.59 1016.98 1016.06 1015.46 1015.32 1015.47 1015.27 1015.40 1015.45 1015.06 1014.63 1014.02 1013.50 1013.30 1012.87 1012.44 1012.07 1011.71 1011.31 1010.95 1010.86 1010.77 1010.63 1010.47
1013.15 1013.54 1013.76 1014.13 1014.27 1014.44 1014.82 1015.33 1015.72 1016.03 1015.66 1016.18 1016.77 1016.79 1016.69 1016.58 1016.64 1016.95 1017.15 1016.95 1016.90 1016.63 1015.71 1015.29 1015.22 1015.59 1015.74 1015.56 1014.74 1014.34 1013.64 1013.11 1012.24 1011.87 1011.48 1011.13 1010.71 1010.34 1009.99 1009.68 1009.59 1009.34 1009.19
1012.49 1012.87 1013.08 1013.56 1013.65 1014.09 1014.83 1016.13 1016.50 1016.51 1016.62 1016.38 1016.30 1016.29 1016.51 1016.63 1016.56 1016.70 1016.51 1016.68 1016.58 1016.60 1015.96 1015.29 1015.60 1015.60 1015.80 1015.37 1014.67 1014.08 1013.23 1012.40 1011.31 1010.87 1010.55 1010.11 1009.55 1009.10 1008.82 1008.57 1008.31 1008.05 1007.86
1011.49 1012.11 1012.43 1012.85 1013.40 1014.15 1015.86 1017.02 1017.18 1016.51 1016.03 1016.52 1016.09 1015.85 1016.22 1016.61 1016.47 1016.87 1016.56 1016.53 1016.41 1016.66 1016.56 1015.88 1015.82 1015.58 1015.46 1015.21 1014.54 1013.81 1012.79 1011.86 1011.08 1010.19 1009.63 1008.96 1008.47 1008.09 1007.73 1007.42 1007.23 1006.98 1006.89
1010.66 1011.47 1011.86 1012.20 1012.86 1013.97 1014.63 1013.37 1013.75 1015.00 1015.80 1016.12 1015.46 1015.36 1016.10 1016.29 1016.15 1016.54 1016.06 1015.87 1016.17 1016.58 1016.72 1016.50 1015.89 1015.45 1015.13 1014.66 1013.92 1013.13 1012.20 1011.03 1010.04 1009.38 1008.87 1008.45 1007.95 1007.37 1006.87 1006.30 1005.72 1005.72 1005.65
1010.16 1010.79 1011.00 1011.39 1012.34 1012.93 1013.23 1013.45 1014.16 1015.13 1015.27 1015.32 1014.87 1015.55 1016.13 1015.86 1016.06 1016.36 1015.91 1016.24 1016.54 1016.69 1016.62 1016.40 1015.92 1015.49 1015.00 1014.25 1013.69 1012.60 1011.34 1010.48 1009.53 1009.17 1008.75 1008.22 1007.40 1006.77 1006.09 1005.63 1004.87 1004.56 1004.38
1009.57 1010.11 1010.42 1010.87 1011.43 1012.29 1012.70 1013.34 1013.83 1014.41 1014.67 1014.47 1015.00 1015.71 1015.71 1016.09 1016.59 1016.42 1016.25 1016.69 1017.03 1016.97 1016.87 1016.54 1016.00 1015.47 1014.84 1014.39 1013.70 1012.88 1011.97 1010.56 1009.75 1009.22 1008.66 1007.71 1006.87 1006.05 1005.59 1005.21 1004.28 1003.79 1003.36
1009.11 1009.72 1010.09 1010.42 1010.91 1011.53 1012.25 1012.83 1013.19 1013.64 1014.12 1014.67 1015.50 1015.80 1016.16 1016.51 1016.76 1016.95 1017.09 1017.23 1017.39 1017.43 1017.34 1016.98 1016.21 1015.83 1015.36 1015.01 1014.08 1013.39 1012.35 1011.22 1010.16 1009.25 1008.83 1007.59 1006.85 1006.24 1005.64 1004.63 1003.99 1003.42 1002.92
1008.53 1009.13 1009.73 1010.53 1010.83 1011.18 1011.93 1012.80 1013.10 1013.61 1014.37 1014.84 1015.53 1015.83 1016.08 1016.70 1016.95 1017.06 1017.32 1017.47 1017.51 1017.70 1017.71 1017.39 1016.83 1016.39 1015.98 1015.30 1014.71 1013.69 1012.61 1012.07 1011.17 1009.98 1009.36 1007.90 1006.95 1006.26 1005.54 1004.48 1003.65 1002.73 1002.55
1008.28 1009.03 1009.98 1010.44 1010.84 1011.70 1012.35 1013.07 1013.33 1013.96 1014.64 1015.09 1015.58 1015.94 1016.48 1017.03 1017.26 1017.30 1017.41 1017.46 1017.42 1017.37 1017.37 1017.15 1016.81 1016.53 1016.34 1015.74 1015.11 1014.26 1013.17 1011.83 1010.95 1010.18 1009.96 1008.49 1007.50 1006.71 1005.87 1004.97 1003.77 1002.66 1002.61
1008.21 1009.15 1009.83 1010.40 1011.31 1012.29 1012.54 1013.16 1013.58 1014.17 1014.87 1015.53 1016.11 1016.53 1016.90 1017.25 1017.61 1017.84 1017.78 1017.66 1017.48 1017.33 1017.06 1016.95 1016.77 1016.47 1016.23 1015.79 1015.33 1014.16 1013.02 1012.06 1011.25 1010.49 1010.03 1009.43 1008.24 1007.25 1006.42 1005.81 1004.93 1004.10 1003.96
1008.41 1009.35 1010.21 1010.93 1011.82 1012.35 1013.13 1013.59 1014.02 1014.48 1015.19 1016.00 1016.61 1017.08 1017.42 1017.67 1018.11 1018.37 1018.22 1018.03 1017.73 1017.61 1017.19 1016.70 1016.09 1015.64 1015.39 1015.18 1015.00 1014.61 1013.90 1013.21 1012.47 1011.39 1010.82 1009.83 1008.86 1007.80 1006.95 1007.11 1006.41 1005.66 1005.36
Wind_Speed
2 3 3 4 4 3 2 3 3 4 5 6 6 7 8 8 7 4 4 3 7 10 10 11 12 11 11 9 9 9 9 11 12 13 14 15 15 15 15 17 17 17 17
2 3 3 4 3 3 3 3 4 4 5 5 6 8 9 8 7 6 5 4 5 5 8 11 10 11 11 11 11 10 10 11 11 12 13 13 14 15 16 17 18 18 17
3 4 3 4 3 4 4 3 2 3 4 5 5 7 8 8 6 5 4 4 2 6 10 10 9 6 6 8 9 9 10 11 12 12 11 12 13 14 16 17 19 18 18
4 4 3 4 4 3 2 2 4 4 6 6 7 7 5 5 6 5 5 5 5 5 8 13 12 11 10 9 9 9 10 9 11 11 12 11 11 12 14 16 19 19 19
6 5 4 3 3 2 2 2 3 4 5 6 7 6 4 4 5 5 6 6 7 6 5 8 10 13 13 12 12 11 10 9 8 11 11 12 11 11 12 13 16 19 20
4 3 4 4 3 2 3 3 3 6 9 9 9 7 5 1 4 4 3 3 5 6 6 6 5 5 12 12 12 13 13 13 11 9 10 11 11 11 11 11 11 15 19
5 4 4 4 3 3 2 3 3 11 7 10 7 9 3 1 4 2 1 2 4 5 5 5 5 5 4 5 9 13 14 13 12 12 12 12 9 10 11 11 10 10 12
7 5 5 4 3 3 2 2 11 6 4 6 3 8 4 4 2 4 1 0 3 4 4 4 4 5 4 4 6 10 10 10 10 11 11 11 12 11 8 10 10 10 10
9 8 7 5 3 4 2 13 13 11 3 5 4 3 5 3 9 4 3 3 1 3 2 2 3 5 4 5 7 8 12 12 12 11 11 12 12 11 11 10 8 9 11
10 9 8 7 5 4 6 12 11 8 4 2 1 8 10 5 5 5 2 3 3 5 3 4 3 4 4 6 8 10 12 15 14 12 12 13 13 14 14 13 12 10 6
9 9 8 7 7 6 11 14 14 11 6 4 5 5 6 5 9 9 8 3 3 5 4 5 4 4 4 5 8 8 17 15 14 14 14 15 14 14 15 15 16 16 15
7 8 9 9 8 6 13 14 14 13 9 3 4 6 7 6 4 6 6 6 6 4 4 4 6 5 5 7 10 15 16 15 14 14 16 16 17 17 17 17 18 19 20
8 9 9 9 7 8 13 14 14 14 11 10 8 6 7 7 7 6 3 1 5 5 4 6 4 5 5 7 10 15 18 16 15 16 16 18 20 20 20 20 20 21 22
9 8 9 9 10 9 13 14 12 12 9 8 9 7 5 6 5 5 3 3 8 6 7 9 6 4 6 8 14 17 12 14 16 18 20 20 20 21 21 22 21 21 24
10 8 10 10 10 10 13 14 10 12 9 8 8 8 6 4 4 5 4 5 5 9 10 9 7 9 10 12 13 13 13 16 20 22 21 22 21 22 22 22 24 25 26
11 10 10 9 10 9 12 11 8 9 10 5 6 8 7 3 4 5 4 5 5 7 11 10 10 13 12 12 13 14 15 19 18 20 22 22 22 22 22 23 26 27 26
12 12 12 10 11 8 7 3 6 9 5 7 7 6 7 6 4 5 5 4 5 5 10 10 10 11 13 14 14 14 14 14 13 20 22 22 23 23 23 24 24 24 24
13 12 12 11 10 6 8 9 12 8 8 8 7 6 6 4 6 4 4 3 3 5 8 13 11 11 11 13 14 15 13 13 14 19 21 20 20 21 21 21 22 21 21
13 11 11 11 11 8 13 12 21 12 10 9 7 6 5 7 5 3 2 3 3 4 5 8 11 9 10 10 13 12 12 15 12 21 17 18 18 21 21 19 18 18 19
11 10 12 11 9 13 13 12 11 11 8 9 7 5 6 4 3 3 3 3 4 6 6 8 9 9 9 10 10 13 14 14 15 12 11 18 18 19 19 17 17 16 14
9 10 10 9 10 13 8 8 11 10 10 9 7 6 5 8 9 7 3 4 5 6 7 8 8 9 10 12 13 12 13 15 13 2 11 11 10 7 7 11 13 14 13
9 8 8 8 7 7 11 9 10 9 10 10 8 7 10 11 10 10 8 7 5 5 7 7 7 10 11 12 12 12 12 14 10 5 12 12 10 9 7 7 13 18 13
7 7 6 8 7 7 10 10 8 10 9 8 9 9 7 6 6 6 6 3 2 1 3 6 9 10 11 12 13 14 13 12 10 11 9 7 9 9 7 10 21 13 7
6 8 9 9 8 6 10 9 12 10 9 9 9 9 9 7 6 5 5 5 5 4 5 5 6 8 9 10 10 10 12 13 9 5 6 5 9 10 7 12 24 12 6
9 8 9 10 11 9 13 13 12 11 11 11 9 9 9 9 7 3 5 6 6 6 3 3 6 9 10 7 8 9 12 13 10 6 8 7 7 7 4 13 13 26 28
10 8 10 10 12 13 12 13 11 10 12 9 9 9 8 9 7 4 6 6 6 7 7 8 8 9 9 10 8 9 10 11 9 5 11 9 10 9 4 10 14 14 13
Wind_Direction
313 336 338 338 338 341 341 332 348 359 3 353 345 331 327 330 328 310 307 253 285 266 268 266 266 270 275 280 274 266 261 259 249 246 247 246 243 243 241 234 229 232 232
308 325 345 341 355 2 7 346 344 356 6 358 355 344 332 326 328 320 330 332 338 327 301 286 288 281 274 273 275 272 264 261 257 251 250 249 243 242 243 242 241 233 233
272 307 323 319 340 351 341 334 8 30 8 358 354 348 341 351 352 8 354 347 351 77 42 35 32 10 308 288 276 268 258 255 255 257 251 242 242 238 240 241 242 238 233
252 274 295 310 351 324 328 13 31 13 4 357 345 349 3 23 13 27 40 32 38 38 77 43 42 40 36 26 11 350 315 274 265 268 272 266 250 244 243 240 239 238 235
235 247 272 299 312 329 356 12 42 18 357 350 327 340 352 20 27 35 54 68 55 42 33 52 32 32 19 14 9 358 347 331 302 282 263 252 253 252 248 244 242 242 236
221 237 265 272 274 309 350 357 11 46 22 350 330 345 321 283 10 24 30 49 58 41 33 22 4 28 29 23 21 31 22 12 1 334 305 280 268 255 252 248 245 245 241
214 221 258 282 237 264 21 24 19 53 33 1 342 332 320 338 286 334 350 6 48 43 40 27 15 359 1 21 26 9 3 358 356 349 353 356 293 266 257 258 251 251 243
241 237 253 274 242 235 219 71 62 75 31 45 252 298 319 314 64 306 210 354 12 13 26 38 18 15 339 331 358 345 348 344 342 341 348 355 4 6 329 274 251 234 222
240 234 238 248 232 228 265 101 103 105 128 271 100 112 330 337 331 302 228 223 347 313 320 357 338 358 334 325 314 324 345 327 322 325 336 339 340 340 341 345 329 253 198
236 230 230 230 222 228 130 132 142 141 160 252 233 183 204 226 273 302 243 222 278 288 291 336 321 318 299 321 328 319 332 321 312 310 312 320 323 322 319 314 309 307 270
232 231 224 218 213 218 144 159 157 166 204 207 174 191 226 226 226 239 279 299 273 267 290 314 313 300 309 310 323 322 326 306 301 297 296 299 308 311 307 301 294 286 277
231 222 220 214 212 196 168 176 179 181 217 261 202 227 208 233 234 220 248 280 304 287 266 287 301 313 317 320 316 321 315 303 298 293 287 285 292 296 292 291 287 281 273
236 228 214 211 209 200 177 190 193 198 205 220 211 216 233 243 254 245 233 329 303 323 323 291 294 311 307 322 320 323 312 300 295 289 282 281 283 281 281 276 274 273 269
246 237 221 220 219 198 187 200 203 213 202 217 252 247 248 242 235 233 156 117 286 295 300 295 322 327 320 326 317 318 304 306 287 283 280 277 275 274 274 273 268 270 267
246 238 230 224 224 220 198 209 221 227 226 241 242 250 257 238 231 208 168 197 276 306 312 322 321 330 329 328 323 313 307 302 298 288 283 281 280 280 280 279 270 274 263
230 234 231 229 233 227 207 213 229 241 221 230 240 264 242 212 218 189 184 215 239 276 294 312 326 327 328 320 318 315 310 300 291 288 286 287 286 283 276 277 275 269 262
223 221 228 226 230 219 197 188 265 271 252 231 229 249 228 215 208 203 200 212 242 271 290 307 313 326 314 310 312 313 306 304 303 306 306 302 295 290 283 278 275 269 265
218 219 227 222 221 207 100 40 341 281 236 232 242 197 217 203 180 216 207 218 304 296 295 303 324 315 311 311 308 307 304 308 310 303 310 299 298 294 287 277 273 267 259
223 214 222 224 211 148 127 124 233 243 235 249 194 168 198 181 185 194 210 2 320 300 300 302 305 312 317 317 317 310 309 314 313 329 325 311 306 302 299 292 278 263 253
226 212 217 223 191 163 153 203 217 233 206 205 141 148 178 171 159 177 52 13 327 320 323 300 313 318 321 328 323 326 326 323 328 339 316 319 310 303 307 303 293 281 266
224 213 220 216 196 181 196 178 189 193 189 144 112 145 117 93 84 64 14 24 351 335 328 324 317 327 333 335 337 330 326 326 326 334 331 323 322 321 328 310 310 315 288
222 212 210 214 171 190 146 163 160 155 146 137 123 110 112 107 91 75 73 56 38 343 330 325 325 336 329 324 333 328 322 334 337 335 331 316 327 326 321 305 317 323 313
207 196 153 149 163 168 135 126 138 146 139 112 138 127 123 100 93 93 86 91 110 48 316 312 320 329 320 326 325 324 327 327 316 308 322 312 339 335 325 325 331 312 302
184 130 144 156 140 114 121 139 122 115 124 132 127 124 116 113 88 79 51 34 29 18 4 335 322 317 315 329 328 314 311 322 316 287 348 298 332 333 331 350 10 27 98
121 130 139 130 123 138 130 125 132 134 119 111 112 114 116 107 93 63 50 32 23 18 343 285 279 279 294 325 338 331 356 349 344 336 355 326 332 321 335 11 14 38 38
121 114 105 119 126 134 123 125 137 128 122 119 115 106 79 96 102 46 53 25 17 8 355 354 5 5 8 11 18 14 8 2 350 331 346 342 345 347 2 29 25 28 31